Weather Roundup
Issued by NWS Chicago, IL

Home | Current Version | Previous Version | Graphics & Text | Print | Product List | Glossary On
Versions: 1 2 3 4 5 6 7 8 9 10 11 12 13 14 15 16 17 18 19 20 21 22 23 24 25 26 27 28 29 30 31 32 33 34 35 36 37 38 39 40 41 42 43 44 45 46 47 48 49 50
000
NZUS59 KLOT 301403
HRRLOT

CHICAGO AREA WEATHER ROUNDUP
NATIONAL WEATHER SERVICE CHICAGO/ROMEOVILLE IL
900 AM CDT SAT APR 30 2016

NOTE: "FAIR" INDICATES FEW OR NO CLOUDS BELOW 12,000 FEET WITH NO
SIGNIFICANT WEATHER AND/OR OBSTRUCTIONS TO VISIBILITY.

* THESE STATIONS ARE NOT UNDER NWS QUALITY CONTROL. THEY ALSO MAY NOT
  REPORT WEATHER SUCH AS PRECIPITATION OR FOG.

ILZ005-006-012>014-019>023-301500-
NORTHEAST ILLINOIS

CITY           SKY/WX    TMP DP  RH WIND       PRES   REMARKS
OHARE          CLOUDY    48  41  76 E14       30.04S
MIDWAY         CLOUDY    50  39  66 E13       30.05R
AURORA         CLOUDY    51  43  74 E15       30.02S HAZE
LANSING*       CLOUDY    48  40  74 E9        30.04S
WAUKEGAN       PTSUNNY   44  41  89 E12       30.06F
DUPAGE AIRPORT CLOUDY    49  40  71 E9        30.02S
WHEELING       CLOUDY    46  41  82 E7        30.07R
MORRIS*        RAIN      49  43  80 E18       29.98F
$$

WIZ051-052-058>065-066-070>072-301500-
SOUTHEAST WISCONSIN

CITY           SKY/WX    TMP DP  RH WIND       PRES   REMARKS
MILWAUKEE      CLOUDY    44  39  82 E16       30.08F
KENOSHA*       PTSUNNY   46  40  79 E13       30.07F
RACINE*        CLOUDY    45  39  79 E13       30.09F
BURLINGTON     CLOUDY    45  40  81 E10G17    30.05F
WAUKESHA       PTSUNNY   45  36  70 E5        30.09F
$$

INZ001>003-010>013-019-020-301500-
NORTHWEST INDIANA

CITY           SKY/WX    TMP DP  RH WIND       PRES   REMARKS
GARY*          CLOUDY    50  46  87 E12       30.05S
MICHIGAN CITY* NOT AVBL
RENSSELAER*    NOT AVBL
VALPARAISO     CLOUDY    47  40  76 E12       30.05F
$$

LMZ740>746-301500-
SOUTHERN LAKE MICHIGAN

STATION/POSITION TIME  SKY/WX   TEMP WIND        PRES    VSBY
                                AIR  DIR/SP/G
                 (UTC)          (F)  (DEG/KT/KT) (MB)    (MI)
HARRISON CRIB    1300            45   90/ 16/ 17   N/A
BURNHAM HARBOR   1400            46   80/ 13/ 13   N/A
CALUMET HARBOR   1300            47   70/ 10/ 14 1016.9F
BURNS HARBOR     1304            48  100/ 12/ 17 1018.3F
MICHIGAN CITY    1300            47   70/  9/ 11   N/A
$$

ABBREVIATIONS USED IN REMARKS
   TC - TEMPERATURE IN CELSIUS
  WCI - WIND CHILL INDEX
   HX - HEAT INDEX
  VSB - VISIBILITY
$$




USA.gov is the U.S. government's official web portal to all federal, state and local government web resources and services.